Location: Long Island Community Building
(39.9491°N, 99.5338°W)
Time: 19:16:02
(UTC+00:00)

Cosmos 1484 Rocket - Pass Details

Date: 06 December 2019
Orbit: 505 x 561 km, 97.4° (Epoch: 26 January)

Event Time Altitude Azimuth Distance (km) Brightness Sun altitude
Rises 12:07:46 0° 4° (N) 2,744 6.3 -18.1°
Reaches altitude 10° 12:10:01 10° 356° (N) 1,838 5.3 -17.7°
Maximum altitude 12:13:44 40° 287° (WNW) 822 3.2 -17.0°
Drops below altitude 10° 12:17:22 10° 218° (SW) 1,797 5.2 -16.4°
Sets 12:19:33 0° 210° (SSW) 2,673 6.2 -16.0°
